Location: De Greiden
(52.9496°N, 5.9137°E)
Time: 02:01:39
(UTC+00:00)

Cosmos 1455 - Pass Details

Date: 24 January 2021
Orbit: 499 x 520 km, 82.5° (Epoch: 26 February)

Event Time Altitude Azimuth Distance (km) Brightness Sun altitude
Rises 17:46:54 0° 346° (NNW) 2,635 5.8 -14.8°
Reaches altitude 10° 17:49:02 10° 343° (NNW) 1,748 4.9 -15.1°
Maximum altitude 17:52:49 63° 263° (W) 583 2.7 -15.7°
Drops below altitude 10° 17:56:37 10° 182° (S) 1,744 5.0 -16.3°
Sets 17:58:45 0° 179° (S) 2,629 5.9 -16.6°
